Terug naar catalogus

STARLINK-35181

ActiefCommunicatieSSO
NORAD 65666·PAYLOAD·🇺🇸 United States

Gelanceerd Sep 19, 2025 vanaf Vandenberg Space Force Base

Loading…

Volgende Passages (komende 24 uur)

TLE

VersSource: CelesTrak SupGP

Epoch: Sep 14, 2026, 20:42 UTC

1 65666C 25211Q   26257.86298611 -.00011389  00000+0 -35369-3 0  2572
2 65666  97.2831 298.2399 0001256  92.2960 267.8739 15.33430649    16

Volg STARLINK-35181 in realtime met AllMySat

Download on the App Store